Temp
-10 -10 -9 -9 -9 -9 -8 -8 -8 -8 -8 -8 -8 -7 -7 -7 -7 -7 -6 -6 -7 -7 -7 -6 -6 -6 -6 -5 -6 -6 -6 -5 -5 -5 -5 -6 -6 -7 -7 -7 -7 -7 -7
-10 -10 -9 -9 -9 -8 -8 -8 -8 -8 -8 -8 -8 -8 -8 -8 -8 -8 -7 -7 -7 -7 -7 -7 -7 -6 -6 -6 -6 -6 -6 -6 -6 -5 -5 -6 -6 -7 -7 -7 -7 -7 -7
-10 -10 -9 -9 -9 -8 -8 -8 -8 -8 -8 -8 -8 -8 -8 -8 -8 -8 -8 -8 -7 -8 -7 -7 -7 -7 -6 -6 -6 -6 -6 -6 -6 -6 -5 -5 -6 -6 -7 -7 -7 -7 -7
-10 -10 -9 -9 -8 -8 -8 -8 -8 -8 -8 -9 -9 -9 -9 -8 -8 -8 -8 -8 -8 -8 -8 -8 -7 -7 -7 -7 -6 -6 -6 -6 -6 -6 -6 -5 -6 -6 -7 -7 -7 -8 -7
-10 -9 -9 -8 -8 -8 -8 -8 -8 -9 -9 -9 -9 -9 -9 -9 -9 -8 -9 -9 -9 -8 -8 -8 -8 -7 -7 -7 -7 -7 -6 -6 -6 -6 -6 -6 -5 -6 -7 -7 -8 -8 -7
-10 -10 -10 -9 -9 -9 -9 -9 -10 -10 -10 -10 -10 -10 -10 -10 -9 -9 -9 -9 -8 -8 -8 -8 -8 -8 -7 -7 -7 -7 -7 -7 -7 -7 -7 -6 -6 -6 -7 -7 -7 -8 -7
-10 -10 -10 -10 -9 -10 -10 -10 -11 -10 -10 -10 -10 -10 -10 -10 -10 -10 -9 -9 -9 -8 -8 -8 -8 -8 -8 -8 -8 -8 -8 -8 -7 -7 -7 -7 -7 -6 -6 -7 -7 -7 -8
-11 -11 -11 -11 -10 -11 -11 -11 -11 -10 -10 -10 -10 -10 -10 -10 -10 -9 -9 -9 -9 -9 -9 -9 -9 -9 -9 -9 -9 -9 -9 -9 -8 -8 -8 -7 -7 -7 -7 -7 -7 -7 -7
-11 -12 -12 -11 -11 -11 -11 -11 -11 -11 -11 -11 -10 -10 -10 -10 -10 -10 -10 -9 -9 -9 -9 -9 -10 -10 -10 -10 -10 -9 -9 -9 -9 -9 -9 -8 -8 -7 -8 -7 -7 -8 -8
-12 -12 -12 -12 -12 -12 -12 -11 -11 -11 -11 -11 -11 -11 -11 -10 -10 -10 -10 -10 -10 -10 -10 -10 -10 -10 -10 -10 -10 -10 -9 -9 -9 -9 -9 -9 -8 -8 -8 -8 -8 -8 -8
-12 -12 -12 -12 -12 -12 -12 -12 -12 -12 -12 -11 -11 -11 -11 -11 -10 -10 -10 -10 -10 -10 -10 -10 -10 -10 -10 -10 -10 -10 -10 -9 -9 -9 -9 -9 -9 -8 -8 -8 -9 -8 -8
-12 -13 -12 -12 -12 -12 -12 -12 -12 -12 -12 -11 -11 -11 -11 -11 -11 -10 -10 -11 -11 -11 -11 -10 -10 -11 -11 -10 -10 -10 -10 -10 -10 -10 -10 -9 -9 -8 -8 -9 -9 -9 -9
-12 -13 -12 -12 -13 -13 -13 -12 -12 -12 -12 -12 -12 -11 -11 -11 -11 -11 -11 -11 -11 -11 -11 -10 -10 -11 -11 -10 -10 -10 -10 -10 -10 -10 -10 -10 -10 -9 -9 -9 -10 -10 -9
-12 -13 -13 -13 -13 -13 -12 -12 -12 -12 -12 -12 -12 -12 -12 -12 -12 -12 -12 -12 -11 -11 -11 -11 -11 -11 -11 -11 -11 -11 -11 -11 -11 -11 -11 -10 -10 -10 -9 -9 -10 -10 -10
-13 -14 -14 -14 -13 -12 -13 -12 -12 -12 -12 -12 -12 -12 -12 -12 -12 -12 -12 -12 -11 -11 -11 -11 -11 -11 -11 -11 -11 -12 -12 -12 -12 -12 -12 -11 -11 -10 -10 -10 -10 -10 -10
-13 -13 -14 -14 -14 -13 -13 -13 -12 -12 -12 -12 -12 -12 -12 -12 -12 -12 -12 -12 -12 -12 -12 -12 -12 -12 -12 -12 -12 -13 -13 -13 -13 -13 -13 -12 -11 -11 -10 -10 -11 -10 -10
-13 -14 -14 -14 -14 -12 -13 -13 -12 -12 -12 -12 -12 -12 -12 -13 -12 -13 -13 -13 -12 -12 -12 -12 -12 -12 -13 -13 -13 -14 -14 -13 -13 -13 -13 -12 -12 -11 -11 -11 -11 -10 -9
-13 -13 -13 -13 -13 -13 -13 -13 -12 -12 -12 -12 -12 -12 -12 -13 -13 -13 -13 -13 -12 -13 -13 -13 -13 -13 -14 -14 -14 -14 -14 -14 -14 -14 -13 -13 -13 -12 -12 -12 -11 -10 -9
-13 -13 -14 -14 -13 -13 -13 -13 -12 -13 -13 -13 -13 -13 -13 -12 -13 -13 -13 -13 -13 -13 -13 -13 -14 -14 -14 -15 -15 -14 -14 -14 -14 -14 -13 -13 -13 -13 -12 -12 -11 -11 -11
-13 -13 -13 -14 -13 -13 -13 -13 -13 -13 -13 -13 -13 -13 -13 -13 -13 -13 -13 -13 -13 -13 -14 -14 -14 -15 -15 -15 -15 -15 -14 -14 -14 -14 -14 -14 -13 -13 -13 -12 -12 -11 -11
-13 -14 -13 -14 -13 -13 -13 -13 -13 -13 -13 -13 -13 -13 -13 -13 -13 -13 -13 -13 -13 -14 -14 -15 -15 -15 -15 -15 -15 -15 -15 -14 -14 -14 -14 -14 -14 -13 -13 -13 -13 -12 -11
-14 -13 -14 -14 -13 -13 -13 -13 -13 -13 -13 -13 -13 -14 -13 -13 -13 -13 -13 -14 -14 -14 -15 -15 -15 -15 -15 -15 -15 -15 -14 -14 -14 -14 -14 -14 -14 -14 -13 -13 -12 -12 -11
-13 -14 -14 -13 -13 -12 -13 -13 -13 -13 -12 -13 -13 -14 -13 -14 -14 -13 -14 -14 -14 -15 -15 -15 -15 -15 -16 -16 -16 -15 -15 -14 -14 -14 -14 -14 -14 -13 -13 -13 -12 -12 -11
-13 -13 -13 -13 -12 -12 -13 -12 -13 -12 -12 -13 -13 -13 -13 -13 -13 -14 -14 -15 -15 -15 -15 -15 -15 -15 -16 -16 -16 -15 -15 -14 -14 -14 -14 -13 -13 -13 -13 -12 -12 -12 -11
-13 -13 -12 -12 -12 -12 -12 -12 -12 -12 -12 -13 -13 -13 -13 -14 -14 -14 -15 -15 -15 -15 -15 -15 -15 -15 -15 -15 -15 -15 -15 -14 -14 -14 -14 -13 -13 -13 -13 -12 -12 -11 -10
-12 -12 -12 -12 -12 -12 -12 -12 -12 -12 -12 -12 -13 -13 -13 -14 -14 -14 -14 -14 -15 -15 -15 -15 -15 -15 -15 -15 -14 -14 -14 -14 -14 -14 -14 -13 -13 -13 -13 -12 -11 -11 -10
Height
5871 5866 5863 5860 5858 5857 5856 5855 5854 5853 5852 5850 5848 5847 5845 5845 5845 5844 5844 5845 5846 5847 5851 5853 5853 5853 5856 5858 5859 5862 5863 5865 5868 5868 5870 5872 5873 5875 5878 5881 5884 5886 5887
5866 5863 5859 5855 5853 5851 5850 5849 5848 5846 5844 5843 5843 5841 5840 5839 5839 5839 5839 5838 5839 5838 5842 5846 5847 5847 5849 5851 5853 5855 5858 5859 5862 5864 5866 5867 5869 5871 5874 5876 5880 5883 5884
5862 5858 5853 5850 5847 5846 5844 5842 5840 5839 5837 5836 5836 5835 5834 5833 5833 5832 5832 5831 5831 5831 5834 5838 5840 5842 5843 5844 5846 5850 5851 5853 5856 5858 5860 5862 5865 5866 5869 5872 5875 5879 5881
5857 5852 5849 5846 5843 5841 5837 5835 5832 5830 5829 5829 5829 5828 5828 5828 5827 5826 5827 5826 5825 5823 5827 5829 5831 5834 5836 5837 5840 5843 5845 5847 5848 5852 5854 5856 5860 5862 5864 5867 5871 5874 5878
5852 5848 5844 5841 5839 5835 5832 5829 5826 5823 5821 5820 5820 5819 5819 5820 5820 5819 5820 5820 5819 5818 5819 5821 5823 5824 5828 5830 5831 5834 5837 5840 5842 5844 5848 5850 5853 5857 5859 5862 5866 5871 5873
5847 5843 5839 5836 5834 5831 5827 5824 5821 5818 5817 5815 5813 5812 5811 5811 5810 5810 5812 5810 5811 5811 5812 5813 5814 5817 5819 5821 5823 5825 5828 5831 5834 5837 5841 5843 5846 5850 5853 5857 5861 5866 5866
5843 5840 5834 5831 5827 5825 5821 5819 5815 5813 5812 5810 5809 5807 5806 5804 5803 5802 5802 5801 5802 5803 5805 5806 5806 5808 5810 5812 5814 5817 5818 5822 5826 5829 5833 5836 5839 5842 5846 5850 5855 5859 5863
5838 5834 5829 5824 5821 5819 5816 5814 5811 5809 5805 5803 5801 5799 5798 5797 5794 5792 5793 5793 5794 5795 5795 5796 5797 5798 5800 5803 5806 5808 5811 5814 5817 5821 5825 5828 5831 5834 5839 5843 5848 5853 5856
5833 5829 5824 5819 5816 5815 5812 5809 5805 5802 5800 5796 5794 5791 5789 5788 5786 5785 5784 5784 5784 5785 5786 5786 5788 5789 5790 5793 5795 5798 5801 5806 5809 5813 5817 5820 5823 5827 5831 5836 5841 5846 5850
5829 5824 5819 5816 5813 5811 5808 5804 5801 5798 5795 5792 5788 5785 5782 5780 5778 5777 5776 5776 5775 5776 5776 5777 5777 5778 5780 5781 5784 5787 5791 5796 5801 5805 5809 5812 5816 5820 5823 5829 5834 5840 5844
5824 5820 5815 5812 5809 5806 5803 5799 5796 5793 5790 5787 5783 5779 5775 5773 5772 5770 5769 5768 5767 5766 5767 5767 5767 5767 5768 5772 5774 5777 5781 5786 5791 5795 5800 5804 5808 5813 5817 5821 5827 5833 5838
5819 5815 5810 5808 5805 5801 5798 5794 5791 5787 5784 5780 5776 5772 5769 5765 5763 5761 5759 5758 5757 5757 5757 5757 5757 5758 5759 5761 5764 5767 5771 5775 5780 5784 5789 5795 5801 5806 5810 5814 5820 5826 5831
5813 5810 5806 5803 5801 5796 5792 5789 5785 5781 5777 5772 5769 5765 5761 5758 5755 5752 5750 5749 5748 5748 5748 5747 5747 5748 5749 5751 5753 5757 5760 5764 5769 5774 5778 5785 5792 5797 5802 5807 5814 5820 5825
5808 5805 5801 5797 5794 5790 5787 5783 5779 5774 5770 5766 5763 5759 5755 5751 5748 5745 5743 5741 5740 5740 5739 5739 5738 5738 5739 5740 5742 5745 5748 5752 5756 5762 5768 5774 5781 5788 5795 5801 5808 5815 5820
5802 5799 5796 5792 5788 5784 5781 5776 5772 5767 5763 5760 5757 5752 5747 5744 5741 5737 5735 5734 5732 5731 5730 5730 5728 5728 5729 5729 5730 5733 5737 5741 5746 5751 5757 5764 5772 5780 5788 5794 5802 5809 5814
5796 5794 5791 5787 5782 5778 5775 5770 5765 5761 5757 5754 5750 5746 5742 5738 5734 5732 5730 5727 5725 5723 5722 5720 5719 5719 5719 5720 5721 5724 5727 5731 5736 5741 5747 5755 5763 5772 5781 5788 5796 5804 5809
5791 5789 5786 5781 5777 5773 5769 5764 5759 5756 5752 5747 5743 5739 5735 5731 5727 5724 5722 5720 5719 5716 5714 5712 5712 5711 5711 5712 5714 5717 5721 5725 5728 5733 5740 5748 5756 5765 5774 5782 5791 5802 5805
5786 5784 5780 5776 5772 5768 5763 5758 5754 5750 5745 5741 5737 5732 5728 5725 5721 5718 5715 5713 5710 5707 5705 5704 5704 5703 5703 5704 5707 5710 5714 5719 5722 5728 5735 5742 5750 5758 5767 5776 5784 5787 5783
5781 5778 5775 5772 5767 5762 5758 5753 5749 5744 5740 5736 5731 5726 5722 5719 5715 5711 5708 5706 5703 5700 5698 5696 5695 5695 5695 5696 5699 5704 5709 5714 5717 5723 5730 5737 5744 5752 5761 5771 5777 5782 5785
5775 5773 5770 5766 5762 5757 5753 5748 5744 5740 5736 5732 5727 5722 5717 5713 5709 5705 5702 5699 5695 5692 5690 5689 5688 5686 5686 5688 5693 5699 5705 5710 5715 5720 5726 5734 5740 5747 5758 5768 5775 5779 5784
5770 5767 5765 5761 5756 5753 5748 5744 5740 5736 5732 5728 5722 5717 5713 5708 5704 5701 5696 5692 5688 5685 5683 5681 5680 5680 5681 5683 5689 5696 5701 5708 5713 5718 5725 5732 5738 5746 5756 5764 5773 5777 5782
5765 5762 5760 5756 5752 5748 5744 5740 5737 5732 5728 5722 5718 5713 5709 5704 5699 5694 5688 5684 5681 5679 5676 5674 5675 5677 5678 5682 5687 5693 5700 5707 5711 5718 5724 5731 5739 5747 5755 5763 5771 5778 5780
5760 5758 5756 5752 5748 5744 5740 5736 5732 5729 5724 5719 5714 5710 5704 5698 5693 5688 5682 5679 5677 5675 5671 5669 5672 5674 5676 5681 5686 5693 5699 5705 5711 5718 5725 5733 5741 5748 5754 5761 5768 5773 5780
5756 5754 5751 5747 5743 5740 5736 5732 5728 5724 5719 5715 5711 5706 5699 5694 5688 5683 5679 5677 5675 5673 5670 5670 5673 5677 5679 5683 5688 5695 5701 5707 5714 5720 5727 5734 5741 5748 5755 5760 5766 5774 5781
5750 5749 5747 5743 5740 5735 5732 5728 5724 5719 5716 5712 5707 5701 5696 5691 5684 5680 5677 5676 5675 5674 5673 5675 5678 5680 5683 5687 5692 5697 5702 5708 5713 5720 5728 5735 5741 5749 5755 5760 5766 5774 5777
5746 5745 5742 5739 5735 5732 5728 5725 5721 5716 5713 5708 5703 5697 5693 5687 5682 5679 5677 5677 5678 5677 5678 5680 5682 5685 5688 5692 5696 5700 5705 5710 5716 5721 5728 5735 5743 5750 5756 5760 5766 5771 5777
Wind_Speed
39 43 44 45 41 39 37 35 35 34 33 33 34 34 36 35 34 32 32 31 30 28 28 30 31 30 28 25 23 24 24 24 24 24 25 23 24 25 24 20 19 18 18
40 43 46 46 42 40 39 38 37 36 35 34 33 32 32 33 32 30 30 31 31 29 29 29 29 30 30 27 26 25 26 26 26 26 28 26 26 28 29 27 24 21 21
35 38 38 37 39 39 38 39 38 37 36 36 35 32 31 30 31 31 31 31 32 30 31 31 29 29 30 29 27 28 29 29 29 29 30 31 27 29 31 32 28 25 22
31 33 35 36 36 37 38 38 40 41 39 38 38 38 35 32 32 32 33 32 34 32 34 34 32 30 30 30 29 28 30 32 32 32 32 34 33 31 33 35 32 27 27
32 33 33 34 35 34 33 37 37 34 35 35 32 32 33 34 34 34 34 34 34 34 36 37 35 33 31 32 33 33 33 34 35 35 36 37 37 36 35 36 35 30 29
32 33 33 34 34 35 36 34 32 31 29 30 29 30 32 33 34 33 35 33 34 35 35 37 38 36 36 36 36 36 36 37 38 38 39 39 40 40 39 39 38 34 37
30 34 35 36 36 35 33 32 33 33 31 29 30 32 33 33 35 35 35 33 34 35 37 38 39 39 39 39 38 37 37 36 37 40 41 42 43 43 42 42 42 42 32
29 34 37 38 39 34 31 31 32 31 32 32 31 32 36 37 36 35 37 36 36 37 38 38 40 40 40 39 37 35 37 36 37 39 42 44 45 46 45 44 43 44 45
31 36 38 39 38 32 30 33 35 35 37 38 39 41 41 42 41 41 42 41 40 39 38 38 39 39 39 38 37 38 39 40 39 39 42 43 46 48 47 47 46 46 47
32 36 37 36 34 34 33 35 37 39 38 40 41 42 42 42 42 43 43 42 41 40 38 35 35 38 37 37 38 38 39 41 41 42 41 42 43 46 48 47 47 46 49
32 34 35 38 37 36 36 39 40 41 40 42 42 41 41 39 38 39 39 39 38 36 33 32 35 39 41 41 41 40 40 40 41 42 44 44 43 44 47 49 47 46 45
30 30 36 36 35 37 39 41 41 42 43 41 40 38 37 37 37 38 37 36 36 36 36 37 37 36 37 39 42 42 42 42 44 45 47 48 47 45 45 48 48 45 45
30 34 35 37 35 37 36 38 41 41 38 36 34 35 33 34 35 35 36 37 37 37 38 38 39 36 36 38 41 44 45 46 46 47 49 49 49 48 46 47 47 44 43
31 33 33 38 35 34 38 41 39 39 34 30 31 32 32 32 33 33 32 32 32 33 35 37 37 38 37 38 39 40 40 43 48 48 50 50 50 50 47 46 47 43 42
29 25 30 33 35 34 35 37 38 34 30 30 29 31 31 33 32 30 31 32 32 33 36 36 35 35 34 36 36 37 36 37 43 45 48 48 48 49 47 46 46 43 42
28 25 25 31 38 37 34 37 36 31 29 30 29 32 32 33 31 30 27 27 30 35 34 33 30 30 31 30 31 31 29 31 36 39 43 45 47 48 47 47 45 41 39
20 22 26 32 36 36 33 36 34 31 31 31 32 34 32 33 31 30 32 29 31 31 31 29 27 28 29 29 29 29 28 28 32 36 38 41 43 47 48 47 45 36 30
17 22 26 31 34 34 31 35 34 32 33 33 35 34 32 32 32 32 34 31 31 29 29 27 27 28 29 30 30 29 29 24 28 32 36 38 41 46 47 47 47 51 37
19 24 28 34 33 31 32 34 33 33 34 34 36 34 35 37 34 33 32 29 30 30 28 27 26 26 28 30 30 28 28 23 24 29 32 36 39 42 44 46 48 47 47
20 28 33 36 33 29 32 31 30 33 33 35 32 32 32 28 26 25 26 29 29 28 25 24 24 23 24 24 26 27 25 23 23 26 32 33 37 40 43 42 46 46 39
22 28 36 38 31 30 29 29 30 31 32 33 30 31 30 27 26 27 29 31 29 23 23 21 17 16 13 19 24 24 23 23 22 28 29 33 36 37 37 31 41 28 36
28 31 33 35 29 29 27 28 28 29 33 31 30 27 29 29 30 30 29 26 20 19 20 15 12 14 16 19 24 22 24 24 24 29 31 34 32 28 29 31 34 28 27
29 32 35 28 27 24 26 27 28 30 32 29 28 29 30 32 28 26 19 16 15 15 11 9 12 12 16 20 22 23 26 26 30 28 29 29 27 28 29 29 28 28 29
25 26 27 25 23 24 23 26 29 31 29 27 26 28 32 29 26 21 14 10 10 7 1 9 12 15 20 22 23 26 24 25 27 27 28 28 29 30 29 27 29 34 30
23 24 23 24 23 22 24 27 28 27 25 26 26 29 29 25 20 15 8 6 3 5 11 16 18 18 20 22 27 28 26 25 31 29 30 30 30 27 24 27 35 25 31
18 18 21 20 21 21 24 25 24 23 25 26 27 29 25 20 15 7 5 3 7 11 17 17 17 16 20 26 28 24 23 25 27 30 32 31 26 27 27 31 29 27 26
Wind_Direction
297 300 303 303 301 300 299 298 295 293 293 290 286 281 279 278 276 272 267 266 266 264 254 250 252 252 251 250 250 250 246 241 242 242 247 240 237 230 223 221 226 231 232
300 297 297 296 295 294 294 294 292 290 288 285 282 279 274 272 271 269 268 267 266 264 259 250 250 252 254 251 252 249 250 244 238 240 244 240 235 232 230 225 224 231 235
294 291 292 292 292 292 291 290 287 285 282 280 278 275 271 267 267 267 266 264 261 259 258 256 250 250 253 254 252 253 250 246 238 237 240 244 236 233 231 228 225 228 237
295 292 291 293 295 296 298 295 292 287 285 284 277 270 270 263 260 261 264 264 263 262 261 261 259 252 250 254 256 255 254 250 246 239 237 238 238 232 232 228 228 229 241
293 293 294 295 299 298 299 298 299 298 292 285 282 272 265 262 259 257 262 263 260 258 259 261 262 260 254 252 254 257 253 251 247 243 238 236 234 233 232 229 225 228 233
296 293 296 297 297 297 297 295 296 299 300 297 289 283 275 272 272 271 273 270 267 262 259 262 265 262 260 256 253 250 250 248 246 241 238 237 234 233 232 229 223 221 222
293 297 299 297 295 295 294 295 297 291 288 293 291 283 279 277 278 281 280 274 269 264 263 263 262 261 257 253 254 253 248 241 242 240 238 235 234 233 232 230 226 219 223
301 301 299 297 296 296 296 300 301 303 303 302 298 293 292 292 290 289 287 280 272 271 269 266 264 260 254 251 250 248 240 239 240 239 237 234 233 233 232 231 227 225 223
299 301 301 297 297 298 299 303 306 309 310 311 309 304 299 296 296 294 292 287 282 279 275 270 263 255 254 254 253 250 245 244 243 240 235 234 232 232 234 232 229 227 224
303 300 295 296 296 300 306 305 307 312 312 311 309 304 299 295 293 290 287 284 282 279 276 273 270 263 259 260 256 255 254 250 246 241 234 232 234 234 234 235 233 228 227
296 293 291 290 296 303 305 303 307 309 310 309 303 297 292 290 287 283 281 280 278 274 268 268 275 266 262 258 255 254 252 248 243 240 234 231 231 233 234 235 235 233 230
284 290 286 292 299 302 303 305 305 308 306 300 298 294 293 293 292 289 285 279 274 269 271 272 278 273 265 258 255 253 253 248 245 241 234 229 230 232 235 235 235 234 231
284 286 290 295 299 303 306 305 306 304 303 301 298 298 299 298 294 288 283 275 272 269 273 278 278 274 271 263 259 257 253 252 247 239 233 230 229 229 231 234 234 234 232
279 283 290 295 300 309 309 307 304 305 305 300 301 303 302 301 297 290 286 284 277 274 277 279 274 277 271 264 258 254 250 246 243 234 232 228 226 225 227 232 231 232 229
275 290 302 307 309 313 307 303 307 308 306 304 306 308 306 304 302 299 289 284 282 280 280 278 277 272 269 264 260 257 252 245 242 239 226 224 224 222 223 228 228 228 227
276 284 309 314 312 312 307 307 309 311 308 310 309 310 305 306 300 303 296 289 286 284 281 284 277 271 267 261 257 252 246 242 234 231 224 220 220 220 218 223 222 223 225
280 292 299 301 303 310 306 306 310 314 311 312 312 312 311 311 303 298 297 290 293 287 289 280 271 268 265 257 251 243 239 239 229 222 218 216 215 215 216 215 214 212 224
303 311 318 308 304 308 305 304 311 315 314 315 314 313 313 312 308 300 298 291 298 297 290 279 273 268 260 250 244 241 233 229 220 217 214 211 210 210 211 209 208 204 215
310 318 320 327 308 307 302 306 314 317 315 318 315 315 313 310 303 298 291 290 296 298 286 277 275 267 253 243 238 232 222 219 212 211 211 202 204 206 203 205 210 214 217
314 312 320 326 312 305 305 310 317 314 317 316 315 318 318 308 305 301 294 292 297 292 279 280 277 263 252 239 225 216 211 210 205 208 192 196 196 199 201 202 212 219 220
311 304 317 320 313 306 309 315 313 315 317 316 318 320 318 315 308 304 294 297 301 284 284 281 264 246 230 223 211 201 202 203 196 191 191 191 192 195 198 202 211 201 211
311 310 314 313 307 305 311 312 311 314 317 317 320 322 319 312 308 310 300 292 289 290 289 269 242 221 217 198 187 199 199 188 189 185 188 189 187 190 194 200 209 215 199
303 303 307 304 305 309 312 308 312 313 314 316 320 317 318 318 314 317 313 302 301 301 294 256 204 205 182 180 184 181 175 176 179 180 183 182 180 182 189 192 205 197 192
290 302 300 301 307 311 310 312 313 313 311 315 312 315 319 317 319 316 311 310 316 321 343 160 167 155 145 147 155 156 161 170 172 174 178 176 172 177 183 192 194 182 176
295 295 299 301 308 312 314 316 315 309 314 316 316 319 318 320 322 317 319 338 3 74 112 127 134 141 144 147 148 155 158 161 168 169 171 170 174 178 182 194 171 189 171
295 300 295 303 310 312 316 315 316 314 317 319 322 317 320 326 331 352 10 59 117 110 118 129 131 138 145 144 152 147 158 164 161 170 170 169 173 171 169 174 180 193 186